Theta_e
317 317 316 317 317 317 319 318 319 317 317 316 314 313 315 319 317 316 315 313 311 311 310 310 310 310 307 305 306 307 307 307 306 305 303 301 300 298 298 298 298 299 299 300
314 314 313 313 312 312 314 315 316 316 317 315 317 316 318 317 317 315 312 311 310 309 309 309 308 305 305 305 305 305 304 302 300 299 297 295 293 292 293 294 295 295 298 299
313 313 314 317 315 313 313 313 313 314 314 313 316 317 318 318 316 314 310 309 309 308 307 305 305 305 304 304 302 300 298 297 295 292 290 290 289 289 289 290 290 292 295 295
313 314 317 316 314 315 314 315 313 313 313 314 316 316 315 317 316 312 309 309 308 305 306 305 305 304 302 301 298 295 292 290 289 289 289 288 288 288 288 288 289 291 291 292
314 315 315 317 314 316 317 316 314 315 314 315 315 314 310 313 314 312 310 308 307 307 306 305 303 302 300 297 292 290 289 289 288 287 287 287 287 287 287 288 288 288 289 290
305 312 318 316 314 315 313 315 316 316 316 316 316 314 310 310 311 311 309 308 306 306 307 306 303 298 294 290 289 288 288 287 287 287 287 287 287 287 287 287 287 287 288 288
312 313 313 313 314 315 317 314 316 317 317 317 313 313 311 310 310 309 308 307 307 307 306 301 296 291 289 288 288 287 287 287 287 287 287 287 287 287 286 286 287 287 287 289
312 313 314 314 315 317 312 313 312 312 313 313 311 310 309 309 309 308 307 307 306 304 299 293 289 288 288 287 286 286 286 287 287 287 286 286 286 286 286 286 286 286 287 288
313 312 313 313 313 311 312 311 310 310 310 311 310 310 309 309 310 309 308 305 304 299 293 289 288 288 287 287 286 286 286 286 286 286 286 286 285 285 285 285 286 286 287 287
313 313 313 313 310 311 311 311 311 310 309 309 309 309 308 307 307 306 305 303 298 294 288 288 288 287 287 286 286 286 286 286 286 285 285 285 285 285 285 285 286 286 287 288
311 311 312 312 312 311 311 311 310 309 308 308 307 306 306 305 305 304 301 299 294 288 288 288 287 287 287 286 286 286 285 285 285 285 285 285 285 285 285 285 286 287 287 287
310 311 310 310 311 310 310 310 310 309 308 307 306 305 304 304 302 298 295 291 288 288 288 287 287 286 286 286 285 285 285 285 285 284 284 284 284 284 285 285 285 286 286 287
311 310 309 310 310 309 309 308 307 306 304 304 304 303 302 300 297 294 289 288 288 287 287 286 286 286 286 285 284 284 284 284 284 284 284 284 284 285 285 284 284 285 286 286
309 309 309 308 308 308 307 307 306 305 304 303 302 301 298 296 291 288 288 287 287 286 286 286 285 285 285 284 284 284 284 284 284 283 283 284 284 285 284 284 284 284 284 285
309 309 308 308 308 307 306 306 305 304 302 301 299 298 294 289 288 288 287 286 286 286 286 285 285 285 284 284 284 284 284 284 283 283 283 284 284 284 284 283 284 284 284 284
308 308 307 305 303 303 303 302 302 301 300 300 297 291 287 287 287 287 286 286 285 285 285 285 284 284 284 283 283 284 283 283 283 283 283 283 283 283 283 283 283 284 284 283
306 305 301 300 300 301 301 301 300 299 298 293 288 287 287 287 287 287 286 285 285 285 284 284 284 284 283 283 283 283 282 282 282 283 283 283 283 282 282 283 283 283 283 282
300 299 299 299 301 301 300 299 298 294 291 287 287 287 287 287 287 286 285 285 285 285 285 284 284 283 283 282 282 282 282 282 282 282 282 282 282 283 283 282 282 282 282 282
298 298 299 300 300 300 299 297 296 290 288 288 287 287 287 286 286 285 285 284 284 284 284 283 283 283 282 282 282 282 282 282 282 282 282 282 282 282 282 282 282 282 282 282
299 298 298 299 299 299 298 295 288 288 288 287 287 287 286 286 285 284 284 284 284 283 283 282 282 282 281 281 281 282 282 282 282 282 282 282 282 281 281 282 281 281 280 280
297 297 297 298 298 296 291 287 288 288 287 287 287 286 286 285 285 284 284 283 284 282 282 281 281 281 281 281 282 282 282 282 282 281 281 281 281 281 281 281 280 280 280 280
296 296 296 296 295 290 287 287 287 287 287 287 286 286 285 285 284 284 283 283 282 281 281 281 281 281 281 282 282 282 281 281 281 281 281 280 280 280 280 279 280 280 280 279
295 295 295 295 293 290 287 287 287 287 287 287 286 285 284 284 283 282 282 282 281 280 280 280 280 281 281 281 281 281 280 280 279 279 279 279 279 279 280 280 280 279 279 279
294 294 295 293 291 289 288 287 287 287 287 286 284 284 283 282 282 282 281 280 280 280 280 280 280 280 281 280 280 279 279 279 279 279 279 279 279 279 279 279 279 279 279 279
293 294 294 293 291 290 288 287 287 287 285 284 284 283 282 282 281 280 280 280 279 279 279 280 280 280 280 279 279 279 279 279 278 279 279 279 278 278 278 278 278 278 279 279
292 293 293 292 291 289 288 287 286 285 284 283 283 282 282 281 280 279 279 279 279 279 280 280 280 279 279 279 279 279 278 278 278 278 278 278 278 278 278 278 278 278 278 278
291 291 291 290 289 288 286 285 284 283 282 282 281 281 280 279 279 279 279 279 279 279 279 279 279 279 279 279 279 278 278 278 278 277 277 277 277 277 278 278 278 278 278 278
Wind_Speed
2 2 1 4 6 6 7 5 6 2 8 8 5 6 8 5 16 17 15 15 10 6 2 3 9 13 17 20 20 22 25 26 27 28 29 31 32 32 32 31 31 32 34 32
2 3 4 6 8 9 10 8 8 9 17 9 17 15 4 11 19 18 19 14 10 5 1 7 12 15 17 19 22 23 25 26 27 28 30 31 32 32 32 32 32 33 29 31
0 4 5 8 8 10 4 3 5 7 9 5 3 4 4 4 14 18 18 14 9 3 3 8 11 15 18 20 23 24 24 24 26 29 32 32 33 33 33 34 35 32 30 35
2 3 2 4 4 5 7 5 5 5 7 6 5 3 5 4 13 21 17 11 6 1 7 12 15 16 18 20 20 20 23 25 28 30 32 32 33 33 34 34 34 34 36 33
4 3 7 6 5 4 3 4 2 1 4 4 3 1 8 9 12 15 13 9 3 6 12 15 17 19 19 17 19 21 23 26 28 29 31 31 32 33 33 34 34 35 33 35
3 3 4 4 1 1 3 4 3 2 1 3 3 5 3 11 12 12 9 5 4 10 20 21 18 16 15 18 19 22 24 26 27 27 28 30 31 32 32 33 35 33 32 32
3 2 7 7 5 2 2 4 16 8 8 9 5 8 15 16 11 8 5 6 13 19 23 15 13 14 17 19 22 23 25 26 27 28 30 31 33 33 34 34 33 33 32 27
3 3 6 0 3 2 2 7 11 14 14 12 7 16 16 11 7 7 11 14 18 19 12 11 13 17 19 22 23 24 26 27 29 30 31 33 34 36 36 35 34 33 32 30
7 5 5 9 8 10 8 7 7 8 10 7 6 11 9 9 15 18 20 17 21 13 11 12 15 19 22 24 24 26 28 30 31 33 34 34 36 37 37 36 35 33 31 35
2 1 2 9 9 6 8 9 6 7 7 8 11 12 12 12 11 11 18 19 11 11 13 17 19 21 23 25 25 27 29 32 34 36 37 36 36 36 37 36 35 32 35 36
6 11 13 3 18 16 10 10 8 7 6 9 9 13 15 11 13 19 13 9 10 14 17 19 21 23 24 25 26 29 31 34 36 37 37 38 37 36 36 35 29 33 35 36
6 5 3 10 12 15 14 13 10 10 10 11 11 11 13 15 13 8 7 10 13 15 19 21 23 24 25 25 26 29 32 33 34 36 37 39 38 40 37 35 32 30 29 27
6 11 16 9 6 5 9 11 10 10 11 13 12 11 12 10 7 8 10 13 16 18 21 23 24 26 25 26 28 29 30 31 34 36 39 38 38 38 39 44 38 31 28 29
5 3 2 8 11 18 20 17 16 16 15 13 11 9 7 6 8 11 13 15 18 20 21 23 26 27 27 28 29 29 29 31 35 40 39 36 36 35 36 36 36 39 35 29
6 10 14 15 19 24 22 19 16 15 12 8 7 6 7 8 11 12 14 16 19 21 23 25 27 28 28 28 28 29 30 33 38 36 33 31 33 36 33 33 34 35 37 36
14 16 22 19 17 17 15 14 13 11 8 9 8 7 8 10 12 15 17 18 21 24 25 26 28 29 28 27 29 31 35 35 33 32 32 34 33 32 33 33 34 35 35 37
20 17 15 18 17 15 9 8 11 11 9 8 8 8 9 12 16 18 19 20 22 24 26 28 30 29 29 29 31 33 37 38 33 32 33 32 32 33 33 32 33 33 36 36
8 11 12 13 11 10 5 7 8 8 8 6 6 9 12 15 18 20 22 23 26 28 28 29 29 30 30 31 32 35 36 35 33 32 34 33 33 31 33 34 35 34 35 36
9 13 13 10 9 7 4 4 6 5 4 7 10 12 14 16 19 22 24 26 28 32 32 30 31 31 33 33 34 34 34 32 33 35 35 33 34 32 33 33 34 34 32 32
14 15 14 11 10 8 7 4 4 5 8 10 12 14 17 19 21 23 25 28 29 30 31 32 32 34 34 34 35 29 32 34 35 34 36 32 33 34 32 32 30 30 34 34
16 15 13 11 10 9 8 8 8 9 10 12 14 17 20 22 22 24 27 31 30 29 30 31 32 34 36 34 31 34 35 36 36 35 34 35 35 33 31 30 34 34 32 32
15 15 13 12 12 12 12 12 12 12 13 14 16 19 22 24 25 25 24 29 32 32 33 33 35 36 31 31 33 36 36 34 35 34 34 34 32 34 35 33 32 32 31 31
17 16 15 14 15 15 16 17 16 15 16 16 19 20 22 24 24 27 32 30 32 33 30 33 32 30 30 32 35 37 37 35 34 33 32 33 33 32 32 33 33 32 31 29
19 18 17 15 15 18 20 18 17 17 18 18 19 20 22 24 26 27 29 32 31 30 30 31 32 31 30 33 33 32 33 33 33 33 33 30 32 34 34 33 32 32 31 28
18 16 16 17 17 18 17 16 17 17 18 19 20 20 21 22 25 29 29 30 29 30 32 32 32 31 30 31 33 33 33 33 33 31 33 34 33 31 32 32 30 29 27 28
14 14 13 13 14 15 15 14 15 16 18 20 21 22 23 24 26 28 28 29 30 30 31 32 32 31 32 32 32 33 35 35 33 33 30 32 32 33 33 32 29 27 24 23
11 12 13 12 11 11 11 12 14 16 17 20 23 24 25 26 27 27 28 29 30 31 32 32 32 33 32 33 34 35 35 35 34 31 31 33 33 32 31 29 28 26 21 19
Wind_Direction
79 94 90 201 216 217 206 183 194 199 247 264 282 275 280 261 176 172 161 150 142 148 172 346 334 334 328 327 330 330 328 328 324 322 321 321 323 326 326 327 324 321 320 320
345 308 274 269 250 228 237 237 253 264 277 268 282 301 198 172 172 163 148 148 163 159 316 325 330 327 328 330 330 329 329 327 326 328 329 330 329 330 329 327 326 325 323 321
269 24 353 299 249 212 198 204 199 217 249 307 330 297 300 228 177 163 153 162 159 168 315 327 328 326 326 329 329 328 328 330 330 329 329 330 330 330 329 327 325 325 324 319
163 36 275 238 296 187 173 228 222 270 287 294 274 113 62 147 167 163 164 159 157 335 341 331 324 322 322 322 324 327 328 329 330 330 330 332 332 331 330 328 326 326 319 322
138 215 297 336 14 61 92 295 342 219 8 102 26 78 62 147 176 171 179 182 196 324 330 326 321 320 314 317 320 322 326 328 331 333 333 334 333 333 330 329 326 324 324 315
60 144 241 243 190 175 119 310 340 14 338 214 314 311 228 160 182 185 196 212 297 328 325 316 306 304 310 316 323 325 326 329 331 335 333 332 332 331 330 328 326 325 323 321
198 231 287 251 200 28 97 260 324 323 322 309 220 253 165 178 186 205 239 300 310 307 309 294 298 307 315 323 326 326 326 328 331 333 332 333 331 331 330 329 329 327 326 328
145 193 274 337 49 336 230 26 54 37 8 322 140 150 162 180 210 257 286 294 307 305 299 306 312 315 322 325 325 324 324 327 329 330 332 332 331 332 333 332 327 329 329 322
187 211 232 45 126 108 75 87 57 29 14 353 164 187 208 259 277 292 291 295 302 297 301 312 317 322 323 325 324 324 326 327 328 329 330 332 332 332 332 331 333 327 322 320
354 279 276 344 114 45 13 14 4 349 336 317 285 267 275 283 278 282 295 289 285 298 308 318 321 323 324 324 324 325 325 325 327 328 330 331 332 331 330 332 329 323 321 320
277 291 304 238 339 330 341 341 328 304 305 310 287 273 270 269 286 295 275 288 301 306 313 316 321 325 326 326 326 325 324 324 325 326 327 328 327 327 328 327 321 317 315 316
224 210 285 312 321 316 302 292 295 297 297 293 278 270 271 285 283 279 300 290 300 309 314 319 322 323 327 327 325 323 320 320 321 322 324 326 326 326 326 325 321 318 316 317
260 293 301 306 313 298 298 318 315 291 281 279 279 279 287 270 263 270 288 303 309 314 317 319 320 322 327 325 322 317 316 318 320 323 324 324 324 323 321 325 324 323 323 320
281 274 277 323 321 322 318 311 309 304 306 304 302 287 258 259 275 290 298 305 310 311 315 318 319 323 328 321 317 317 319 321 320 321 320 320 320 319 315 313 316 321 329 329
256 315 320 313 309 305 300 294 295 297 299 288 272 259 268 276 283 291 301 308 312 316 318 318 319 323 323 320 318 320 320 316 316 316 316 315 312 313 313 313 313 317 325 325
293 302 308 304 300 298 295 299 305 302 291 273 263 259 266 279 296 307 315 317 315 317 318 318 321 324 322 321 321 318 314 317 317 315 315 313 316 314 312 313 315 317 320 322
298 304 311 315 321 318 310 285 275 257 247 240 240 259 289 303 308 313 316 316 313 313 319 324 322 322 321 320 319 318 317 316 317 313 317 315 311 310 314 314 315 315 317 325
297 308 312 313 317 317 306 275 241 227 229 242 279 297 305 308 313 316 318 317 316 317 320 322 320 321 320 319 319 317 316 315 316 315 314 311 311 312 310 313 317 314 318 321
317 317 315 312 317 322 288 242 226 222 256 285 294 301 308 316 316 314 315 314 315 316 322 321 321 320 319 319 319 314 312 312 313 315 314 311 310 313 312 311 313 314 315 317
308 305 305 301 300 296 292 257 231 254 273 287 301 309 311 313 312 313 314 311 315 319 320 321 321 319 317 318 318 314 313 313 312 309 309 309 306 309 310 309 310 311 313 317
295 296 296 289 283 276 254 241 250 265 279 292 299 303 304 309 313 314 313 313 323 322 321 319 318 318 320 319 319 311 309 309 308 306 306 306 308 308 308 307 309 313 315 318
293 288 284 276 267 257 248 252 262 271 281 288 294 300 305 311 313 313 314 316 322 324 323 320 318 318 314 315 310 308 309 307 307 306 304 305 303 304 307 311 312 315 316 317
289 281 273 266 262 260 255 259 267 274 281 288 295 302 308 311 315 317 318 324 322 321 313 313 318 314 314 312 308 306 305 307 308 308 307 307 308 309 311 313 313 313 315 317
283 273 267 265 259 254 256 264 269 274 281 290 297 304 309 314 315 319 318 316 316 318 317 318 319 316 314 306 308 312 314 314 312 310 311 310 309 311 312 312 313 314 315 315
279 268 259 257 259 263 263 262 268 277 286 293 302 308 312 315 313 316 316 318 319 320 320 321 321 319 318 320 319 316 315 315 313 310 305 303 305 307 309 311 312 311 311 309
279 271 265 262 262 259 260 265 274 283 292 301 305 311 314 316 318 319 320 320 321 321 320 322 325 324 321 320 318 318 316 313 311 311 308 305 307 307 308 309 309 309 311 311
275 266 261 254 251 255 262 271 285 296 303 307 310 318 321 320 319 320 320 321 322 323 324 325 325 325 323 320 319 318 316 315 315 308 305 306 308 308 308 309 308 308 308 309